Weather History for KCDJ - December, 2013

Change the Weather History Date:

Sunday, December 29, 2013

  Actual Average (KIRK) Record (KIRK)
Temperature  
Mean Temperature 24 °F 26 °F  
Max Temperature 37 °F 35 °F 66 °F (1984)
Min Temperature 10 °F 18 °F -6 °F (1924)
Degree Days  
Heating Degree Days 42 39  
Month to date heating degree days 1045  
Since 1 July heating degree days 2266  
Cooling Degree Days 0 0  
Month to date cooling degree days 0  
Year to date cooling degree days 939  
Moisture  
Dew Point 7 °F    
Average Humidity 61    
Maximum Humidity 78    
Minimum Humidity 40    
Precipitation  
Precipitation 0.00 in 0.04 in 0.56 in (1990)
Month to date precipitation 1.67  
Year to date precipitation 39.23  
Sea Level Pressure  
Sea Level Pressure 30.27 in    
Wind  
Wind Speed 11 mph (NW)    
Max Wind Speed 17 mph    
Max Gust Speed 29 mph    
T = Trace of Precipitation, MM = Missing Value Source: NWS Daily Summary

Daily Weather History Graph

Daily Weather History Graph

Search for Another Location

Airport or City:

Trip Planner

Search our weather history database for the weather conditions in past years. The results will help you decide how hot, cold, wet, or windy it might be!

Date:

Astronomy

Dec. 29, 2013 Rise Set
Actual Time 7:35 AM CST 4:58 PM CST
Civil Twilight 7:04 AM CST 5:28 PM CST
Nautical Twilight 6:30 AM CST 6:02 PM CST
Astronomical Twilight 5:57 AM CST 6:35 PM CST
Moon 4:19 AM CST (12/29) 2:36 PM CST (12/29)
Length of Visible Light 10h 23m
Length of Day
9h 22m
Waning Crescent, 11% of the Moon is Illuminated
Dec 29
Waning Crescent
Jan 1
New
Jan 7
First Quarter
Jan 15
Full
Jan 23
Last Quarter

Hourly Weather History & Observations

Time (CST) Temp. Windchill Dew Point Humidity Pressure Visibility Wind Dir Wind Speed Gust Speed Precip Events Conditions
12:52 AM 37.0 °F 30.4 °F 30.0 °F 76% 29.96 in - NW 9.2 mph - N/A   Unknown
1:52 AM 33.1 °F 23.0 °F 27.0 °F 78% 29.99 in - NNW 15.0 mph 24.2 mph N/A   Unknown
2:52 AM 28.9 °F 17.7 °F 21.9 °F 75% 30.04 in - NW 15.0 mph 27.6 mph N/A   Unknown
3:52 AM 25.0 °F 14.8 °F 18.0 °F 75% 30.09 in - NNW 10.4 mph 24.2 mph N/A   Unknown
4:52 AM 21.9 °F 10.4 °F 14.0 °F 72% 30.12 in - NNW 11.5 mph 24.2 mph N/A   Unknown
5:52 AM 19.9 °F 5.2 °F 12.0 °F 71% 30.15 in - NW 17.3 mph 26.5 mph N/A   Unknown
6:52 AM 18.0 °F 4.8 °F 9.0 °F 68% 30.19 in - NNW 12.7 mph 23.0 mph N/A   Unknown
7:52 AM 17.1 °F 3.0 °F 9.0 °F 71% 30.23 in - NNW 13.8 mph 28.8 mph N/A   Unknown
8:52 AM 17.1 °F 3.6 °F 8.1 °F 68% 30.27 in - NW 12.7 mph 20.7 mph N/A   Unknown
9:52 AM 17.1 °F 1.5 °F 7.0 °F 65% 30.30 in - NW 17.3 mph 28.8 mph N/A   Unknown
10:52 AM 17.1 °F 1.5 °F 8.1 °F 68% 30.32 in - WNW 17.3 mph 25.3 mph N/A   Unknown
11:52 AM 17.1 °F 2.5 °F 7.0 °F 65% 30.31 in - NW 15.0 mph 28.8 mph N/A   Unknown
12:52 PM 19.0 °F 5.0 °F 7.0 °F 59% 30.31 in - NNW 15.0 mph 20.7 mph N/A   Unknown
1:52 PM 18.0 °F 4.2 °F 5.0 °F 57% 30.31 in - NW 13.8 mph 21.9 mph N/A   Unknown
2:52 PM 18.0 °F 6.1 °F 3.0 °F 52% 30.33 in - NW 10.4 mph 23.0 mph N/A   Unknown
3:52 PM 19.0 °F 9.0 °F -2.0 °F 40% 30.35 in - NNW 8.1 mph - N/A   Unknown
4:52 PM 17.1 °F 6.6 °F -2.0 °F 43% 30.38 in - NNW 8.1 mph 21.9 mph N/A   Unknown
5:52 PM 15.1 °F 5.2 °F -2.0 °F 47% 30.40 in - NW 6.9 mph - N/A   Unknown
6:52 PM 14.0 °F 6.5 °F -0.9 °F 52% 30.41 in - NW 4.6 mph - N/A   Unknown
7:52 PM 12.9 °F 6.9 °F -0.0 °F 56% 30.41 in - NW 3.5 mph - N/A   Unknown
8:52 PM 12.9 °F 5.2 °F -2.9 °F 49% 30.42 in - NW 4.6 mph - N/A   Unknown
9:52 PM 12.0 °F 5.9 °F -4.0 °F 49% 30.42 in - NNW 3.5 mph - N/A   Unknown
10:52 PM 10.9 °F 4.7 °F -4.0 °F 51% 30.42 in - Variable 3.5 mph - N/A   Unknown
11:52 PM 10.0 °F 3.6 °F -4.0 °F 53% 30.41 in - Variable 3.5 mph - N/A   Unknown